DW1520 Weather Reports


time (UTC)temp
F
wind
direction
speed
knots
gust
knots
rain 1hr
in
rain 24hr
in
rain mn
in
humidity
%
barometer
mb
20260508022506 48 306 0.0 0.0 0.00 0.00 0.00 39 1009.1
20260508022007 48 306 0.0 0.0 0.00 0.00 0.00 38 1008.9
20260508021506 49 306 0.0 0.0 0.00 0.00 0.00 38 1008.9
20260508021006 49 306 0.0 0.0 0.00 0.00 0.00 38 1008.9
20260508020506 49 306 0.0 0.0 0.00 0.00 0.00 38 1008.8
20260508020007 49 306 0.0 0.0 0.00 0.00 0.00 38 1008.8
20260508015506 50 306 0.0 0.0 0.00 0.00 0.00 37 1008.7
20260508015006 50 306 0.0 0.0 0.00 0.00 0.00 37 1008.7
20260508014506 51 306 0.0 0.0 0.00 0.00 0.00 37 1008.7
20260508014006 51 306 0.0 0.0 0.00 0.00 0.00 37 1008.6
20260508013507 51 306 0.0 0.0 0.00 0.00 0.00 35 1008.5
20260508012506 51 306 0.0 0.0 0.00 0.00 0.00 35 1008.5
20260508012006 52 306 0.0 0.0 0.00 0.00 0.00 36 1008.5
20260508011506 52 306 0.0 0.0 0.00 0.00 0.00 35 1008.5
20260508010506 52 306 0.0 0.0 0.00 0.00 0.00 37 1008.4
20260508010006 53 306 0.0 0.0 0.00 0.00 0.00 39 1008.4
20260508005506 53 306 0.0 0.0 0.00 0.00 0.00 37 1008.4
20260508005007 54 306 0.0 0.0 0.00 0.00 0.00 38 1008.5
20260508004505 54 306 0.0 0.0 0.00 0.00 0.00 35 1008.4
20260508004006 54 306 0.0 0.0 0.00 0.00 0.00 34 1008.4
20260508003507 55 306 0.0 0.0 0.00 0.00 0.00 34 1008.4
20260508003008 55 306 0.0 1.7 0.00 0.00 0.00 31 1008.4
20260508002506 55 306 0.9 2.6 0.00 0.00 0.00 31 1008.4
20260508002006 55 306 0.9 1.7 0.00 0.00 0.00 33 1008.4
20260508001506 55 306 0.9 1.7 0.00 0.00 0.00 31 1008.5
20260508001006 55 306 0.0 1.7 0.00 0.00 0.00 31 1008.5
20260508000006 56 310 0.0 2.6 0.00 0.00 0.00 31 1008.5
20260507235506 56 302 0.9 1.7 0.00 0.00 0.00 30 1008.6
20260507235006 56 302 0.9 1.7 0.00 0.00 0.00 29 1008.7
20260507234006 56 302 0.0 2.6 0.00 0.00 0.00 31 1008.7
20260507233507 56 302 1.7 2.6 0.00 0.00 0.00 29 1008.7
20260507233006 56 302 1.7 2.6 0.00 0.00 0.00 29 1008.7
20260507232506 56 290 1.7 2.6 0.00 0.00 0.00 28 1008.6
20260507232006 56 311 0.9 2.6 0.00 0.00 0.00 29 1008.6
20260507231506 57 311 1.7 2.6 0.00 0.00 0.00 30 1008.6
20260507231007 57 311 1.7 6.1 0.00 0.00 0.00 30 1008.7
20260507230506 56 330 0.9 2.6 0.00 0.00 0.00 30 1008.7
20260507230006 56 330 1.7 2.6 0.00 0.00 0.00 29 1008.7
20260507225506 56 330 0.9 2.6 0.00 0.00 0.00 29 1008.8
20260507225007 56 330 1.7 7.0 0.00 0.00 0.00 29 1008.8
20260507224506 57 296 2.6 7.0 0.00 0.00 0.00 29 1008.8
20260507224007 56 306 2.6 6.1 0.00 0.00 0.00 31 1008.8
20260507223006 56 304 2.6 8.7 0.00 0.00 0.00 29 1008.9
20260507221506 56 297 1.7 7.0 0.00 0.00 0.00 29 1009.0
20260507221006 56 297 1.7 7.8 0.00 0.00 0.00 29 1008.9
20260507220006 56 295 3.5 7.8 0.00 0.00 0.00 29 1009.1
20260507215506 57 286 2.6 8.7 0.00 0.00 0.00 30 1009.1
20260507215006 57 283 1.7 7.0 0.00 0.00 0.00 29 1009.0
20260507214506 57 265 0.9 1.7 0.00 0.00 0.00 27 1008.9
20260507214006 57 313 1.7 5.2 0.00 0.00 0.00 30 1009.0
20260507213506 57 224 2.6 5.2 0.00 0.00 0.00 28 1009.0
20260507213006 57 309 1.7 7.0 0.00 0.00 0.00 29 1009.0
20260507212505 56 298 2.6 7.0 0.00 0.00 0.00 30 1009.0
20260507212006 57 313 1.7 7.0 0.00 0.00 0.00 28 1009.0
20260507211507 56 297 2.6 7.8 0.00 0.00 0.00 30 1009.0
20260507211006 56 347 1.7 4.3 0.00 0.00 0.00 29 1009.0
20260507210506 57 308 1.7 6.1 0.00 0.00 0.00 31 1009.1
20260507210006 57 293 2.6 7.0 0.00 0.00 0.00 32 1009.1
20260507205006 58 225 1.7 4.3 0.00 0.00 0.00 28 1009.1
20260507204506 57 218 1.7 5.2 0.00 0.00 0.00 31 1009.1
20260507204006 57 315 0.9 4.3 0.00 0.00 0.00 29 1009.2
20260507203506 57 312 1.7 4.3 0.00 0.00 0.00 30 1009.3
20260507203007 56 329 1.7 4.3 0.00 0.00 0.00 29 1009.3
20260507202006 56 329 1.7 6.1 0.00 0.00 0.00 29 1009.4
20260507201505 56 218 2.6 7.8 0.00 0.00 0.00 29 1009.5
20260507201007 57 303 1.7 4.3 0.00 0.00 0.00 30 1009.4
20260507200506 56 249 1.7 4.3 0.00 0.00 0.00 33 1009.4
20260507200006 56 286 1.7 7.8 0.00 0.00 0.00 30 1009.5
20260507195006 56 261 1.7 2.6 0.00 0.00 0.00 30 1009.6
20260507194506 56 302 2.6 6.1 0.00 0.00 0.00 31 1009.7
20260507194006 56 332 1.7 4.3 0.00 0.00 0.00 33 1009.7
20260507193506 56 311 1.7 2.6 0.00 0.00 0.00 35 1009.6
20260507193006 56 308 2.6 4.3 0.00 0.00 0.00 31 1009.7
20260507192506 56 292 2.6 6.1 0.00 0.00 0.00 32 1009.6
20260507192006 57 303 1.7 2.6 0.00 0.00 0.00 33 1009.6
20260507191505 57 217 1.7 5.2 0.00 0.00 0.00 31 1009.7
20260507191007 56 304 1.7 5.2 0.00 0.00 0.00 34 1009.7
20260507190506 56 333 1.7 7.0 0.00 0.00 0.00 31 1009.7
20260507190006 56 210 1.7 4.3 0.00 0.00 0.00 34 1009.9
20260507185506 56 288 1.7 2.6 0.00 0.00 0.00 34 1009.9
20260507185006 56 302 0.9 2.6 0.00 0.00 0.00 34 1009.9
20260507184505 55 303 0.9 6.1 0.00 0.00 0.00 36 1009.8
20260507184006 55 313 1.7 7.8 0.00 0.00 0.00 36 1009.9
20260507183506 55 300 2.6 7.8 0.00 0.00 0.00 36 1009.9
20260507183006 55 238 1.7 4.3 0.00 0.00 0.00 36 1010.0
20260507182506 55 310 1.7 7.0 0.00 0.00 0.00 35 1010.0
20260507182006 55 1 1.7 10.4 0.00 0.00 0.00 35 1010.1
20260507181006 55 302 1.7 6.1 0.00 0.00 0.00 36 1010.1
20260507180506 54 306 3.5 7.8 0.00 0.00 0.00 38 1010.2
20260507180005 54 297 2.6 4.3 0.00 0.00 0.00 37 1010.3
20260507175506 54 301 1.7 4.3 0.00 0.00 0.00 37 1010.3
20260507175006 54 246 1.7 7.0 0.00 0.00 0.00 35 1010.4
20260507174506 54 319 1.7 2.6 0.00 0.00 0.00 36 1010.5
20260507174006 54 323 1.7 2.6 0.00 0.00 0.00 35 1010.5
20260507173506 54 224 1.7 2.6 0.00 0.00 0.00 41 1010.5
20260507173006 53 309 0.9 2.6 0.00 0.00 0.00 39 1010.6
20260507172505 53 328 0.9 2.6 0.00 0.00 0.00 38 1010.6
20260507172006 53 325 1.7 4.3 0.00 0.00 0.00 39 1010.6
20260507170005 53 202 1.7 4.3 0.00 0.00 0.00 38 1010.8
20260507165505 53 344 0.9 2.6 0.00 0.00 0.00 42 1010.9
20260507165006 52 347 0.9 2.6 0.00 0.00 0.00 40 1011.0
20260507164506 52 314 1.7 4.3 0.00 0.00 0.00 42 1011.0
20260507164007 52 294 1.7 5.2 0.00 0.00 0.00 45 1011.0
20260507163506 52 296 1.7 4.3 0.00 0.00 0.00 42 1011.1
20260507163009 52 239 1.7 5.2 0.00 0.00 0.00 45 1011.0
20260507162506 52 348 1.7 5.2 0.00 0.00 0.00 45 1011.1
20260507162006 51 324 0.9 2.6 0.00 0.00 0.00 45 1011.1
20260507161506 51 324 1.7 4.3 0.00 0.00 0.00 42 1011.1
20260507161006 52 306 2.6 4.3 0.00 0.00 0.00 42 1011.3
20260507160506 52 304 0.9 4.3 0.00 0.00 0.00 46 1011.3
20260507160005 52 49 1.7 4.3 0.00 0.00 0.00 47 1011.2
20260507155506 51 324 0.9 2.6 0.00 0.00 0.00 47 1011.2
20260507155006 51 324 1.7 2.6 0.00 0.00 0.00 47 1011.2
20260507154505 51 328 0.9 2.6 0.00 0.00 0.00 47 1011.3
20260507154008 51 330 0.9 4.3 0.00 0.00 0.00 48 1011.2
20260507153505 51 301 1.7 5.2 0.00 0.00 0.00 50 1011.2
20260507153006 51 298 1.7 2.6 0.00 0.00 0.00 48 1011.2
20260507152506 51 298 1.7 2.6 0.00 0.00 0.00 49 1011.1
20260507152006 50 333 0.9 2.6 0.00 0.00 0.00 52 1011.2
20260507151506 50 355 1.7 2.6 0.00 0.00 0.00 49 1011.3
20260507151006 50 338 0.9 2.6 0.00 0.00 0.00 51 1011.3
20260507150506 50 325 1.7 2.6 0.00 0.00 0.00 51 1011.3
20260507150006 50 321 0.9 2.6 0.00 0.00 0.00 52 1011.4
20260507145505 49 314 0.9 4.3 0.00 0.00 0.00 53 1011.4
20260507145006 49 298 1.7 6.1 0.00 0.00 0.00 54 1011.4
20260507144506 49 11 0.0 2.6 0.00 0.00 0.00 54 1011.4
20260507144006 48 12 0.0 2.6 0.00 0.00 0.00 57 1011.5
20260507143506 48 317 0.9 2.6 0.00 0.00 0.00 57 1011.6
20260507143006 48 296 1.7 2.6 0.00 0.00 0.00 59 1011.6
20260507142506 47 309 0.9 2.6 0.00 0.00 0.00 61 1011.7
20260507142006 47 299 0.9 2.6 0.00 0.00 0.00 62 1011.7
20260507141505 46 313 1.7 2.6 0.00 0.00 0.00 62 1011.8
20260507140006 46 307 0.9 2.6 0.00 0.00 0.00 64 1011.9
20260507134506 43 309 0.9 2.6 0.00 0.00 0.00 71 1012.1
20260507134005 42 302 0.0 0.9 0.00 0.00 0.00 73 1012.0
20260507133006 41 302 0.0 0.0 0.00 0.00 0.00 76 1012.2
20260507132506 40 302 0.0 0.0 0.00 0.00 0.00 78 1012.2
20260507132006 40 302 0.0 0.9 0.00 0.00 0.00 80 1012.3
20260507131005 39 302 0.0 0.9 0.00 0.00 0.00 80 1012.2
20260507130006 38 302 0.9 1.7 0.00 0.00 0.00 84 1012.3
20260507125513 37 302 0.0 0.9 0.00 0.00 0.00 83 1012.3
20260507125006 36 302 0.0 0.9 0.00 0.00 0.00 82 1012.3
20260507124506 36 302 0.0 0.9 0.00 0.00 0.00 83 1012.4
20260507124005 36 302 0.0 0.0 0.00 0.00 0.00 82 1012.4
20260507123506 36 302 0.0 0.0 0.00 0.00 0.00 82 1012.4
20260507123007 36 302 0.0 0.0 0.00 0.00 0.00 82 1012.4
20260507122505 36 302 0.0 0.0 0.00 0.00 0.00 83 1012.4
20260507122006 36 302 0.0 0.0 0.00 0.00 0.00 84 1012.3
20260507121505 36 302 0.0 0.0 0.00 0.00 0.00 84 1012.3
20260507121006 35 302 0.0 0.0 0.00 0.00 0.00 85 1012.3
20260507120505 35 302 0.0 0.0 0.00 0.00 0.00 85 1012.2
20260507120006 35 302 0.0 0.0 0.00 0.00 0.00 85 1012.2
20260507115506 34 302 0.0 0.0 0.00 0.00 0.00 85 1012.2
20260507115006 34 302 0.0 0.0 0.00 0.00 0.00 85 1012.2
20260507114506 34 302 0.0 0.0 0.00 0.00 0.00 85 1012.3
20260507114005 34 302 0.0 0.0 0.00 0.00 0.00 86 1012.3
20260507113506 34 302 0.0 0.0 0.00 0.00 0.00 86 1012.3
20260507113006 33 302 0.0 0.0 0.00 0.00 0.00 86 1012.3
20260507112505 33 302 0.0 0.0 0.00 0.00 0.00 86 1012.3
20260507112005 33 302 0.0 0.0 0.00 0.00 0.00 85 1012.3
20260507111507 33 302 0.0 0.0 0.00 0.00 0.00 85 1012.3
20260507110506 32 302 0.0 0.0 0.00 0.00 0.00 85 1012.2
20260507105505 32 302 0.0 0.0 0.00 0.00 0.00 86 1012.3
20260507105006 32 302 0.0 0.0 0.00 0.00 0.00 86 1012.3
20260507104506 32 302 0.0 0.0 0.00 0.00 0.00 86 1012.3
20260507104005 32 302 0.0 0.0 0.00 0.00 0.00 86 1012.3
20260507103505 32 302 0.0 0.0 0.00 0.00 0.00 85 1012.3
20260507103006 32 302 0.0 0.0 0.00 0.00 0.00 85 1012.3
20260507102505 32 302 0.0 0.0 0.00 0.00 0.00 85 1012.4
20260507102007 32 302 0.0 0.0 0.00 0.00 0.00 85 1012.4
20260507101507 32 302 0.0 0.0 0.00 0.00 0.00 85 1012.4
20260507100506 32 302 0.0 0.0 0.00 0.00 0.00 84 1012.5
20260507100005 32 302 0.0 0.0 0.00 0.00 0.00 84 1012.5
20260507095506 32 302 0.0 0.0 0.00 0.00 0.00 84 1012.5
20260507094006 32 302 0.0 0.0 0.00 0.00 0.00 83 1012.6
20260507093506 32 302 0.0 0.0 0.00 0.00 0.00 82 1012.6
20260507093005 32 302 0.0 0.0 0.00 0.00 0.00 82 1012.5
20260507092506 32 302 0.0 0.0 0.00 0.00 0.00 82 1012.6
20260507092006 32 302 0.0 0.0 0.00 0.00 0.00 82 1012.6
20260507091505 32 302 0.0 0.0 0.00 0.00 0.00 82 1012.6
20260507090505 32 302 0.0 0.0 0.00 0.00 0.00 81 1012.7
20260507090006 32 302 0.0 0.0 0.00 0.00 0.00 81 1012.6
20260507085506 32 302 0.0 0.0 0.00 0.00 0.00 81 1012.6
20260507085006 32 302 0.0 0.0 0.00 0.00 0.00 82 1012.7
20260507084006 33 302 0.0 0.0 0.00 0.00 0.00 81 1012.7
20260507083007 33 302 0.0 0.0 0.00 0.00 0.00 82 1012.8
20260507082505 33 302 0.0 0.9 0.00 0.00 0.00 81 1012.9
20260507082005 33 302 0.0 0.0 0.00 0.00 0.00 81 1012.9
20260507081506 33 302 0.0 0.0 0.00 0.00 0.00 81 1012.9
20260507081006 33 302 0.0 0.0 0.00 0.00 0.00 80 1013.0
20260507080506 33 302 0.0 0.0 0.00 0.00 0.00 80 1013.0
20260507080005 33 302 0.0 0.0 0.00 0.00 0.00 80 1012.9
20260507075505 33 302 0.0 0.0 0.00 0.00 0.00 79 1012.9
20260507075005 33 302 0.0 0.0 0.00 0.00 0.00 80 1012.9
20260507074506 33 302 0.0 0.0 0.00 0.00 0.00 79 1013.0
20260507073505 34 302 0.0 0.0 0.00 0.00 0.00 79 1013.1
20260507073006 34 302 0.0 0.0 0.00 0.00 0.00 79 1013.2
20260507071506 34 302 0.0 0.0 0.00 0.00 0.00 81 1013.3
20260507071005 34 302 0.0 0.0 0.00 0.00 0.00 81 1013.3
20260507070506 34 302 0.0 0.0 0.00 0.00 0.00 81 1013.3
20260507070010 34 302 0.0 0.0 0.00 0.00 0.00 82 1013.4
20260507065006 34 302 0.0 0.0 0.00 0.00 0.00 83 1013.5
20260507064505 33 302 0.0 0.0 0.00 0.00 0.00 83 1013.6
20260507064006 33 302 0.0 0.0 0.00 0.00 0.00 83 1013.6
20260507063506 33 302 0.0 0.0 0.00 0.00 0.00 84 1013.6
20260507063005 33 302 0.0 0.0 0.00 0.00 0.00 85 1013.6
20260507062506 33 302 0.0 0.0 0.00 0.00 0.00 85 1013.6
20260507062005 33 302 0.0 0.0 0.00 0.00 0.00 85 1013.6
20260507061006 33 302 0.0 0.0 0.00 0.00 0.00 84 1013.7
20260507060505 33 302 0.0 0.0 0.00 0.00 0.00 85 1013.7
20260507055506 33 302 0.0 0.0 0.00 0.00 0.00 85 1013.7
20260507055006 33 302 0.0 0.0 0.00 0.00 0.00 85 1013.7
20260507054505 33 302 0.0 0.0 0.00 0.00 0.00 85 1013.7
20260507054005 33 302 0.0 0.0 0.00 0.00 0.00 84 1013.8
20260507053505 33 302 0.0 0.0 0.00 0.00 0.00 84 1013.8
20260507053005 33 302 0.0 0.0 0.00 0.00 0.00 84 1013.8
20260507052506 33 302 0.0 0.0 0.00 0.00 0.00 83 1013.9
20260507052006 33 302 0.0 0.0 0.00 0.00 0.00 82 1013.9
20260507051505 33 302 0.0 0.0 0.00 0.00 0.00 81 1013.9
20260507051006 33 302 0.0 0.0 0.00 0.00 0.00 81 1013.9
20260507050505 33 302 0.0 0.0 0.00 0.00 0.00 80 1013.9
20260507045505 34 302 0.0 0.0 0.00 0.00 0.00 79 1013.9
20260507045005 34 302 0.0 0.0 0.00 0.00 0.00 79 1013.9
20260507044505 34 302 0.0 0.0 0.00 0.00 0.00 78 1013.9
20260507044005 35 302 0.0 0.0 0.00 0.00 0.00 78 1014.0
20260507043506 35 302 0.0 0.0 0.00 0.00 0.00 75 1014.0
20260507042505 35 302 0.0 0.0 0.00 0.00 0.00 74 1014.0
20260507042006 35 302 0.0 0.0 0.00 0.00 0.00 74 1014.0
20260507041506 35 302 0.0 0.0 0.00 0.00 0.00 73 1014.1
20260507041006 35 302 0.0 0.0 0.00 0.00 0.00 73 1014.1
20260507040505 35 302 0.0 0.0 0.00 0.00 0.00 73 1014.1
20260507035506 35 302 0.0 0.0 0.00 0.00 0.00 73 1014.0
20260507035006 35 302 0.0 0.0 0.00 0.00 0.00 72 1014.1
20260507034506 36 302 0.0 0.0 0.00 0.00 0.00 72 1014.1
20260507034006 36 302 0.0 0.0 0.00 0.00 0.00 71 1014.1
20260507033506 36 302 0.0 0.0 0.00 0.00 0.00 70 1014.2
20260507033006 36 302 0.0 0.0 0.00 0.00 0.00 70 1014.3
20260507032006 37 302 0.0 0.0 0.00 0.00 0.00 69 1014.3
20260507031505 37 302 0.0 0.0 0.00 0.00 0.00 69 1014.3
20260507031006 37 302 0.0 0.0 0.00 0.00 0.00 68 1014.3
20260507030506 37 302 0.0 0.0 0.00 0.00 0.00 68 1014.4
20260507030005 37 302 0.0 0.0 0.00 0.00 0.00 68 1014.4
20260507025505 38 302 0.0 0.0 0.00 0.00 0.00 67 1014.4
20260507025006 38 302 0.0 0.0 0.00 0.00 0.00 67 1014.4
20260507024506 38 302 0.0 0.0 0.00 0.00 0.00 66 1014.6
20260507024005 38 302 0.0 0.0 0.00 0.00 0.00 65 1014.5